TimeEST,TemperatureF,Dew PointF,Humidity,Sea Level PressureIn,VisibilityMPH,Wind Direction,Wind SpeedMPH,Gust SpeedMPH,PrecipitationIn,Events,Conditions,WindDirDegrees,DateUTC
12:53 AM,39.0,28.0,65,29.88,10.0,NW,6.9,-,N/A,,Clear,320,2012-11-04 04:53:00
1:53 AM,37.9,28.0,68,29.88,10.0,NW,5.8,-,N/A,,Clear,320,2012-11-04 05:53:00
1:53 AM,37.9,28.0,68,29.89,10.0,NW,4.6,-,N/A,,Clear,310,2012-11-04 06:53:00
2:53 AM,37.9,28.0,68,29.88,10.0,NW,3.5,-,N/A,,Clear,320,2012-11-04 07:53:00
3:53 AM,34.0,28.0,79,29.89,10.0,Calm,Calm,-,N/A,,Clear,0,2012-11-04 08:53:00
4:53 AM,37.0,28.0,70,29.90,10.0,NW,3.5,-,N/A,,Clear,320,2012-11-04 09:53:00
5:53 AM,37.0,28.0,70,29.91,10.0,NNW,3.5,-,N/A,,Clear,340,2012-11-04 10:53:00
6:53 AM,37.0,28.0,70,29.92,10.0,North,5.8,-,N/A,,Clear,360,2012-11-04 11:53:00
7:53 AM,41.0,28.9,62,29.93,10.0,NNW,10.4,-,N/A,,Clear,340,2012-11-04 12:53:00
8:53 AM,44.1,28.9,55,29.94,10.0,NW,11.5,-,N/A,,Clear,310,2012-11-04 13:53:00
9:53 AM,46.0,28.9,51,29.94,10.0,NW,11.5,-,N/A,,Clear,310,2012-11-04 14:53:00
10:53 AM,48.0,28.9,48,29.93,10.0,WNW,11.5,17.3,N/A,,Clear,300,2012-11-04 15:53:00
11:53 AM,50.0,28.0,43,29.91,10.0,NNW,9.2,-,N/A,,Mostly Cloudy,330,2012-11-04 16:53:00
12:53 PM,50.0,28.0,43,29.91,10.0,NW,12.7,-,N/A,,Clear,320,2012-11-04 17:53:00
1:53 PM,50.0,28.0,43,29.90,10.0,WNW,12.7,-,N/A,,Clear,300,2012-11-04 18:53:00
2:53 PM,46.9,28.0,48,29.92,10.0,WNW,12.7,-,N/A,,Clear,300,2012-11-04 19:53:00
3:53 PM,44.1,28.0,53,29.94,10.0,WNW,12.7,-,N/A,,Clear,300,2012-11-04 20:53:00
4:53 PM,43.0,28.0,56,29.95,10.0,NW,9.2,-,N/A,,Scattered Clouds,310,2012-11-04 21:53:00
5:53 PM,43.0,28.0,56,29.96,10.0,NW,6.9,-,N/A,,Overcast,310,2012-11-04 22:53:00
6:53 PM,43.0,28.0,56,29.96,10.0,WNW,8.1,-,N/A,,Overcast,300,2012-11-04 23:53:00
7:53 PM,43.0,28.0,56,29.96,10.0,WNW,6.9,-,N/A,,Overcast,290,2012-11-05 00:53:00
8:53 PM,42.1,28.0,58,29.97,10.0,NW,9.2,-,N/A,,Overcast,310,2012-11-05 01:53:00
9:53 PM,41.0,27.0,57,29.97,10.0,WNW,9.2,-,N/A,,Overcast,300,2012-11-05 02:53:00
10:53 PM,41.0,28.0,60,29.96,10.0,NW,10.4,-,N/A,,Overcast,310,2012-11-05 03:53:00